TimeMDT,TemperatureF,Dew PointF,Humidity,Sea Level PressureIn,VisibilityMPH,Wind Direction,Wind SpeedMPH,Gust SpeedMPH,PrecipitationIn,Events,Conditions,WindDirDegrees,DateUTC
12:53 AM,37.0,1.0,22,30.34,10.0,Calm,Calm,-,N/A,,Clear,0,2013-05-03 06:53:00
1:53 AM,35.1,1.9,25,30.33,10.0,Calm,Calm,-,N/A,,Clear,0,2013-05-03 07:53:00
2:53 AM,37.9,3.9,24,30.30,10.0,Calm,Calm,-,N/A,,Clear,0,2013-05-03 08:53:00
3:53 AM,36.0,5.0,27,30.30,10.0,Calm,Calm,-,N/A,,Clear,0,2013-05-03 09:53:00
4:53 AM,37.0,6.1,28,30.28,10.0,Calm,Calm,-,N/A,,Clear,0,2013-05-03 10:53:00
5:53 AM,37.9,6.1,27,30.26,10.0,SSE,6.9,-,N/A,,Clear,160,2013-05-03 11:53:00
6:53 AM,42.1,7.0,24,30.24,10.0,SSE,5.8,-,N/A,,Clear,160,2013-05-03 12:53:00
7:53 AM,48.0,9.0,21,30.22,10.0,SE,8.1,-,N/A,,Clear,130,2013-05-03 13:53:00
8:53 AM,52.0,9.0,18,30.22,10.0,East,10.4,-,N/A,,Clear,100,2013-05-03 14:53:00
9:53 AM,54.0,10.0,17,30.21,10.0,East,6.9,-,N/A,,Clear,80,2013-05-03 15:53:00
10:53 AM,55.9,10.9,17,30.18,10.0,Calm,Calm,-,N/A,,Clear,0,2013-05-03 16:53:00
11:53 AM,60.1,10.0,14,30.14,10.0,SE,4.6,-,N/A,,Clear,140,2013-05-03 17:53:00
12:53 PM,66.0,7.0,10,30.10,10.0,North,5.8,-,N/A,,Clear,10,2013-05-03 18:53:00
1:53 PM,66.0,6.1,9,30.06,10.0,Variable,5.8,-,N/A,,Clear,0,2013-05-03 19:53:00
2:53 PM,66.9,3.0,8,30.02,10.0,NW,8.1,-,N/A,,Clear,320,2013-05-03 20:53:00
3:53 PM,69.1,1.9,7,29.97,10.0,North,8.1,-,N/A,,Clear,360,2013-05-03 21:53:00
4:53 PM,71.1,-0.9,6,29.92,10.0,WSW,11.5,-,N/A,,Clear,250,2013-05-03 22:53:00
5:53 PM,70.0,-4.0,5,29.91,10.0,Calm,Calm,-,N/A,,Clear,0,2013-05-03 23:53:00
6:53 PM,69.1,-5.1,5,29.87,10.0,Calm,Calm,-,N/A,,Clear,0,2013-05-04 00:53:00
7:53 PM,66.0,-4.0,6,29.85,10.0,North,4.6,-,N/A,,Clear,360,2013-05-04 01:53:00
8:53 PM,59.0,-4.0,8,29.85,10.0,NW,4.6,-,N/A,,Clear,320,2013-05-04 02:53:00
9:53 PM,51.1,-2.9,11,29.88,10.0,Calm,Calm,-,N/A,,Clear,0,2013-05-04 03:53:00
10:53 PM,50.0,1.0,13,29.87,10.0,Calm,Calm,-,N/A,,Clear,0,2013-05-04 04:53:00
11:53 PM,50.0,-0.9,12,29.85,10.0,Calm,Calm,-,N/A,,Clear,0,2013-05-04 05:53:00